Location: Andrest
(43.3200°N, 0.0641°E)
Time: 22:53:49
(UTC+00:00)

SL-8 Rocket - Pass Details

Date: 21 April 2021
Orbit: 958 x 989 km, 82.9° (Epoch: 16 May)

Event Time Altitude Azimuth Distance (km) Brightness Sun altitude
Rises 00:20:28 0° 359° (N) 3,694 8.1 -34.6°
Reaches altitude 10° 00:23:13 10° 8° (N) 2,747 7.2 -34.5°
Enters shadow 00:28:55 37° 72° (ENE) 1,496 5.0 -34.4°
